User: anonymous   Login
Location: Unspecified
(0.0000°N, 0.0000°E)
Time: 15:53:49
(UTC+00:00)
Language:

Intelsat II F-4 - Orbit

View from above orbital plane
View from above orbital plane
View from above satellite
View from above satellite

Ground track
Ground track

The orbit data is extracted from the following two-line orbital elements,

1  2969U 67094A   19015.55446538 -.00000093  00000-0  00000+0 0  9990
2  2969   2.6183 293.8021 0011633 258.0779  17.7438  1.00380091 89622
Epoch (UTC): 15 January 2019 13:18:25
Eccentricity: 0.0011633
inclination: 2.6183°
perigee height: 35707 km
apogee height: 35805 km
right ascension of ascending node: 293.8021°
argument of perigee: 258.0779°
revolutions per day: 1.00380091
mean anomaly at epoch: 17.7438°
orbit number at epoch: 8962

The dashed part of the orbit path shows where the satellite is in the earth's shadow,  

DLR